Flag Weather past 2 weeks in Bühl, Baden-Württemberg, Germany

Now
43 °F

Clear.


Feels Like: 43 °F
Forecast: 40 / 56 °F
Wind: 2 mph from East

Location: Karlsruhe - Baden Wurttemberg

Current Time: Nov 22, 2014 at 3:18:06 AM

Latest Report: Nov 21, 2014 at 11:50 PM


Visibility: 4 mi

Pressure: 30.12 "Hg

Humidity: 93%

Dew point: 41 °F

Location of BühlLocation

Historic Weather in Bühl — Graph

°F

Bühl temperature yesterday

Maximum temperature yesterday: 46 °F (at 2:20 PM)
Minimum temperature yesterday: 41 °F (at 5:20 AM)
Average temperature yesterday: 43 °F

Past Weeks' High & Low Weather Summary

 TemperatureHumidityPressure
High57 °F (Nov 8, 12:20 PM)100% (Nov 8, 11:50 PM)30.30 "Hg (Nov 8, 11:50 PM)
Low34 °F (Nov 9, 5:50 AM)59% (Nov 8, 2:50 PM)29.56 "Hg (Nov 15, 10:50 PM)
Average47 °F89%29.85 "Hg
* Reported Nov 6 11:50 PM — Nov 21 11:50 PM, Bühl, Weather by CustomWeather, © 2014

Note: Actual official high and low records may vary slightly from our data, if they occured in-between our weather recording intervals... More about our weather records

Advertising

Bühl weather history for previous 24 hours

 ConditionsComfort  
Time TempWeatherWind HumidityBarometerVisibility
11:50 PM
Nov 21
43 °FClear.2 mph93%30.12 "Hg4 mi
11:20 PM43 °FFog.1 mph93%30.15 "Hg4 mi
10:20 PM43 °FClear.2 mph93%30.15 "Hg4 mi
9:50 PM43 °FClear.2 mph93%30.15 "Hg4 mi
9:20 PM43 °FClear.1 mph93%30.12 "Hg4 mi
8:50 PM43 °FClear.No wind93%30.15 "Hg6 mi
8:20 PM43 °FClear.No wind93%30.12 "Hg6 mi
7:50 PM45 °FClear.2 mph87%30.12 "Hg10 mi
7:20 PM45 °FClear.3 mph87%30.12 "Hg10 mi
6:50 PM45 °FClear.1 mph87%30.12 "Hg10 mi
6:20 PM43 °FClear.3 mph93%30.12 "Hg10 mi
5:50 PM45 °FClear.3 mph87%30.12 "Hg10 mi
5:20 PM45 °FClear.5 mph87%30.12 "Hg5 mi
4:50 PM45 °FClear.5 mph87%30.12 "Hg5 mi
4:20 PM45 °FSunny.5 mph87%30.12 "Hg10 mi
3:50 PM46 °FPassing clouds.5 mph82%30.15 "HgN/A
3:20 PM46 °FSunny.2 mph82%30.15 "Hg10 mi
2:50 PM46 °FSunny.5 mph82%30.15 "Hg10 mi
2:20 PM46 °FBroken clouds.5 mph82%30.15 "HgN/A
1:50 PM45 °FBroken clouds.3 mph87%30.15 "Hg6 mi
1:20 PM45 °FPartly sunny.5 mph87%30.15 "Hg5 mi
12:50 PM45 °FPartly sunny.6 mph87%30.15 "Hg5 mi
12:20 PM45 °FPartly sunny.5 mph87%30.18 "Hg4 mi
11:50 AM43 °FPartly sunny.3 mph93%30.18 "Hg4 mi
11:20 AM43 °FPartly sunny.3 mph93%30.18 "Hg4 mi
10:50 AM43 °FPartly sunny.3 mph93%30.18 "Hg4 mi
10:20 AM43 °FPartly sunny.3 mph93%30.18 "Hg4 mi
9:50 AM41 °FFog.2 mph93%30.18 "Hg3 mi
9:20 AM41 °FPartly sunny.3 mph93%30.18 "Hg4 mi
8:50 AM41 °FPartly sunny.3 mph93%30.18 "Hg4 mi
8:20 AM41 °FPartly sunny.5 mph93%30.18 "Hg4 mi
7:50 AM41 °FPartly sunny.1 mph93%30.18 "Hg4 mi
7:20 AM41 °FSprinkles. Passing clouds.2 mph93%30.18 "Hg4 mi
6:50 AM41 °FSprinkles. Passing clouds.3 mph93%30.18 "Hg4 mi
6:20 AM41 °FSprinkles. Partly cloudy.2 mph93%30.18 "Hg4 mi
5:50 AM43 °FSprinkles. Passing clouds.3 mph93%30.18 "Hg5 mi
5:20 AM41 °FLow clouds.5 mph100%30.18 "Hg4 mi
Weather by CustomWeather, © 2014

See weather overviewHow to use our weather pages